Precipitable_Water
0.28 0.21 0.19 0.19 0.21 0.22 0.23 0.24 0.24 0.24 0.23 0.22 0.22 0.20 0.18 0.17 0.17 0.21 0.22 0.24 0.24 0.20 0.20 0.21 0.21 0.21 0.22 0.22 0.23 0.26 0.29 0.30 0.31 0.33 0.37 0.39 0.39 0.40 0.40 0.40 0.41 0.43 0.46 0.56 0.60 0.62 0.62 0.62 0.62 0.61 0.62 0.62 0.62 0.61 0.61 0.60 0.60 0.62 0.63 0.63 0.62 0.67 0.69 0.66 0.63 0.62 0.62 0.61 0.65 0.71 0.72 0.70 0.75 0.79 0.89 0.99 1.12 1.23 1.32 1.41 1.49 1.54 1.56 1.59 1.60 1.62
0.27 0.20 0.20 0.23 0.25 0.25 0.25 0.26 0.26 0.25 0.25 0.23 0.21 0.20 0.19 0.18 0.16 0.21 0.22 0.25 0.26 0.21 0.21 0.23 0.22 0.22 0.24 0.25 0.26 0.30 0.30 0.28 0.31 0.34 0.38 0.39 0.42 0.43 0.42 0.41 0.43 0.45 0.51 0.54 0.54 0.58 0.58 0.58 0.59 0.60 0.61 0.61 0.57 0.60 0.60 0.58 0.59 0.60 0.62 0.61 0.61 0.64 0.64 0.64 0.63 0.61 0.59 0.61 0.63 0.64 0.67 0.71 0.74 0.76 0.78 0.83 0.98 1.10 1.21 1.33 1.42 1.47 1.52 1.55 1.55 1.56
0.22 0.20 0.23 0.25 0.27 0.27 0.27 0.27 0.27 0.26 0.25 0.24 0.22 0.21 0.18 0.19 0.20 0.23 0.24 0.28 0.27 0.24 0.23 0.24 0.23 0.24 0.27 0.27 0.29 0.31 0.32 0.33 0.35 0.36 0.37 0.40 0.42 0.44 0.45 0.45 0.45 0.46 0.46 0.49 0.52 0.54 0.56 0.57 0.59 0.59 0.59 0.59 0.59 0.59 0.59 0.60 0.60 0.59 0.59 0.60 0.60 0.60 0.60 0.60 0.62 0.60 0.58 0.59 0.59 0.63 0.66 0.69 0.69 0.80 0.84 0.83 0.89 1.00 1.09 1.19 1.31 1.41 1.47 1.52 1.54 1.54
0.20 0.22 0.25 0.27 0.28 0.27 0.27 0.28 0.27 0.27 0.26 0.24 0.23 0.21 0.19 0.22 0.18 0.17 0.24 0.28 0.29 0.27 0.24 0.26 0.24 0.26 0.29 0.31 0.32 0.35 0.34 0.37 0.41 0.42 0.46 0.47 0.44 0.43 0.45 0.46 0.45 0.45 0.45 0.46 0.49 0.50 0.54 0.56 0.56 0.57 0.56 0.57 0.55 0.53 0.53 0.54 0.55 0.56 0.56 0.56 0.57 0.58 0.58 0.58 0.59 0.59 0.60 0.61 0.61 0.60 0.61 0.66 0.70 0.68 0.76 0.80 0.84 0.88 0.95 1.02 1.15 1.27 1.39 1.48 1.54 1.56
0.21 0.25 0.28 0.29 0.29 0.28 0.26 0.27 0.26 0.25 0.23 0.25 0.25 0.23 0.22 0.21 0.22 0.20 0.22 0.26 0.28 0.29 0.28 0.25 0.23 0.23 0.27 0.26 0.29 0.35 0.39 0.39 0.41 0.43 0.46 0.48 0.50 0.50 0.51 0.51 0.51 0.48 0.47 0.47 0.48 0.49 0.51 0.52 0.54 0.55 0.56 0.58 0.54 0.51 0.49 0.48 0.47 0.46 0.46 0.46 0.46 0.47 0.48 0.51 0.53 0.54 0.56 0.57 0.56 0.57 0.58 0.59 0.57 0.61 0.62 0.62 0.64 0.73 0.82 0.92 1.01 1.10 1.24 1.36 1.46 1.54
0.23 0.27 0.30 0.29 0.29 0.28 0.26 0.25 0.26 0.25 0.22 0.24 0.27 0.26 0.25 0.25 0.23 0.24 0.25 0.23 0.22 0.21 0.26 0.23 0.16 0.16 0.24 0.27 0.28 0.32 0.35 0.36 0.41 0.42 0.43 0.47 0.49 0.51 0.48 0.48 0.50 0.50 0.50 0.48 0.48 0.50 0.53 0.54 0.56 0.57 0.57 0.55 0.53 0.49 0.47 0.47 0.46 0.44 0.43 0.42 0.42 0.42 0.43 0.43 0.45 0.48 0.50 0.50 0.50 0.49 0.46 0.43 0.43 0.41 0.45 0.45 0.46 0.51 0.60 0.72 0.91 1.03 1.15 1.26 1.37 1.46
0.25 0.30 0.30 0.28 0.29 0.28 0.27 0.25 0.27 0.26 0.23 0.22 0.24 0.29 0.28 0.26 0.25 0.24 0.24 0.23 0.19 0.16 0.23 0.27 0.16 0.13 0.21 0.23 0.28 0.32 0.34 0.35 0.39 0.40 0.42 0.45 0.48 0.49 0.48 0.49 0.49 0.49 0.49 0.51 0.53 0.54 0.54 0.56 0.56 0.56 0.55 0.53 0.50 0.50 0.50 0.47 0.45 0.44 0.43 0.42 0.41 0.41 0.41 0.42 0.42 0.43 0.43 0.43 0.46 0.48 0.48 0.48 0.47 0.43 0.44 0.50 0.53 0.53 0.55 0.63 0.72 0.87 1.05 1.19 1.27 1.35
0.25 0.28 0.29 0.29 0.27 0.26 0.25 0.24 0.27 0.27 0.24 0.22 0.30 0.30 0.29 0.28 0.26 0.25 0.25 0.24 0.23 0.27 0.27 0.25 0.23 0.16 0.16 0.22 0.31 0.34 0.33 0.35 0.36 0.38 0.40 0.43 0.46 0.48 0.50 0.51 0.51 0.52 0.52 0.52 0.53 0.54 0.56 0.56 0.55 0.53 0.52 0.51 0.51 0.52 0.51 0.49 0.46 0.43 0.42 0.42 0.41 0.41 0.41 0.42 0.42 0.41 0.42 0.40 0.40 0.40 0.43 0.46 0.47 0.48 0.47 0.49 0.50 0.54 0.56 0.55 0.58 0.67 0.81 1.03 1.20 1.26
0.28 0.27 0.29 0.29 0.28 0.26 0.25 0.28 0.30 0.31 0.27 0.27 0.31 0.32 0.30 0.29 0.28 0.28 0.27 0.25 0.26 0.24 0.19 0.23 0.25 0.18 0.17 0.22 0.32 0.34 0.31 0.33 0.35 0.37 0.40 0.43 0.46 0.49 0.51 0.53 0.55 0.55 0.56 0.55 0.54 0.54 0.54 0.53 0.53 0.53 0.52 0.54 0.54 0.53 0.51 0.50 0.48 0.46 0.45 0.44 0.43 0.42 0.42 0.42 0.42 0.40 0.40 0.40 0.40 0.40 0.40 0.38 0.43 0.47 0.49 0.52 0.53 0.52 0.54 0.52 0.55 0.58 0.65 0.77 0.96 1.15
0.33 0.32 0.33 0.32 0.30 0.27 0.30 0.32 0.33 0.32 0.28 0.33 0.35 0.37 0.36 0.35 0.32 0.30 0.27 0.26 0.26 0.22 0.16 0.21 0.25 0.17 0.17 0.23 0.27 0.33 0.32 0.31 0.35 0.39 0.42 0.45 0.47 0.50 0.52 0.54 0.55 0.56 0.57 0.57 0.56 0.55 0.54 0.54 0.54 0.55 0.55 0.54 0.54 0.54 0.54 0.51 0.49 0.47 0.45 0.44 0.42 0.41 0.42 0.42 0.41 0.40 0.39 0.39 0.39 0.39 0.39 0.39 0.39 0.41 0.43 0.48 0.49 0.51 0.53 0.51 0.52 0.55 0.58 0.65 0.74 0.88
0.35 0.39 0.39 0.34 0.31 0.32 0.32 0.33 0.35 0.35 0.35 0.38 0.36 0.33 0.33 0.33 0.32 0.31 0.28 0.26 0.23 0.16 0.17 0.22 0.24 0.22 0.15 0.21 0.25 0.27 0.28 0.33 0.37 0.40 0.45 0.48 0.50 0.52 0.53 0.53 0.54 0.54 0.55 0.55 0.55 0.55 0.55 0.57 0.56 0.56 0.53 0.53 0.53 0.53 0.51 0.50 0.48 0.46 0.44 0.44 0.43 0.43 0.43 0.43 0.41 0.40 0.38 0.38 0.38 0.37 0.39 0.40 0.40 0.41 0.40 0.39 0.41 0.47 0.50 0.50 0.50 0.53 0.57 0.61 0.64 0.73
0.36 0.39 0.38 0.38 0.39 0.36 0.35 0.32 0.36 0.37 0.37 0.34 0.31 0.30 0.29 0.28 0.30 0.28 0.26 0.27 0.18 0.15 0.22 0.26 0.25 0.25 0.15 0.20 0.26 0.31 0.35 0.37 0.37 0.36 0.40 0.45 0.47 0.49 0.51 0.53 0.54 0.55 0.54 0.54 0.54 0.53 0.54 0.55 0.55 0.55 0.52 0.52 0.51 0.50 0.49 0.48 0.46 0.45 0.45 0.45 0.43 0.43 0.43 0.43 0.43 0.41 0.40 0.39 0.38 0.37 0.38 0.39 0.42 0.43 0.42 0.40 0.39 0.42 0.44 0.48 0.50 0.53 0.55 0.57 0.59 0.63
0.32 0.33 0.37 0.38 0.44 0.36 0.33 0.29 0.32 0.35 0.36 0.33 0.32 0.30 0.23 0.21 0.21 0.17 0.20 0.16 0.17 0.16 0.23 0.26 0.26 0.20 0.18 0.22 0.27 0.30 0.32 0.35 0.38 0.39 0.40 0.42 0.45 0.48 0.51 0.53 0.54 0.55 0.55 0.54 0.54 0.54 0.54 0.54 0.53 0.52 0.51 0.51 0.49 0.48 0.48 0.47 0.46 0.45 0.45 0.44 0.43 0.42 0.43 0.43 0.43 0.42 0.41 0.40 0.38 0.37 0.37 0.39 0.42 0.44 0.44 0.43 0.43 0.45 0.44 0.47 0.49 0.51 0.52 0.52 0.53 0.57
0.32 0.37 0.38 0.39 0.40 0.42 0.37 0.28 0.29 0.30 0.34 0.33 0.29 0.28 0.23 0.19 0.18 0.15 0.17 0.20 0.19 0.22 0.26 0.24 0.30 0.19 0.23 0.26 0.32 0.31 0.34 0.37 0.38 0.39 0.40 0.41 0.42 0.44 0.48 0.52 0.54 0.55 0.55 0.55 0.55 0.55 0.55 0.56 0.55 0.55 0.53 0.52 0.51 0.49 0.49 0.49 0.47 0.46 0.45 0.45 0.44 0.43 0.44 0.43 0.42 0.42 0.41 0.40 0.39 0.39 0.38 0.39 0.42 0.44 0.46 0.46 0.46 0.47 0.48 0.49 0.48 0.49 0.52 0.52 0.53 0.56
0.26 0.28 0.34 0.37 0.34 0.42 0.39 0.35 0.34 0.32 0.33 0.33 0.35 0.31 0.27 0.24 0.20 0.16 0.17 0.15 0.15 0.17 0.22 0.28 0.20 0.17 0.17 0.21 0.34 0.37 0.39 0.40 0.41 0.41 0.42 0.44 0.46 0.47 0.49 0.50 0.52 0.52 0.54 0.54 0.55 0.56 0.56 0.57 0.58 0.57 0.56 0.54 0.53 0.52 0.51 0.50 0.49 0.47 0.45 0.45 0.44 0.43 0.43 0.43 0.42 0.42 0.41 0.41 0.40 0.39 0.40 0.40 0.42 0.45 0.47 0.48 0.49 0.49 0.49 0.50 0.49 0.49 0.51 0.54 0.58 0.61
0.31 0.31 0.37 0.42 0.41 0.43 0.38 0.41 0.41 0.37 0.35 0.36 0.35 0.34 0.27 0.24 0.29 0.19 0.21 0.20 0.20 0.20 0.20 0.22 0.20 0.23 0.22 0.32 0.37 0.39 0.40 0.39 0.40 0.41 0.42 0.43 0.46 0.48 0.48 0.49 0.50 0.51 0.51 0.53 0.54 0.57 0.59 0.60 0.60 0.59 0.58 0.57 0.55 0.54 0.53 0.51 0.49 0.46 0.46 0.46 0.45 0.44 0.44 0.43 0.43 0.42 0.42 0.41 0.40 0.40 0.39 0.40 0.43 0.45 0.48 0.49 0.51 0.52 0.52 0.52 0.52 0.51 0.52 0.54 0.58 0.60
0.34 0.31 0.39 0.41 0.42 0.40 0.39 0.40 0.39 0.40 0.25 0.34 0.34 0.27 0.29 0.36 0.30 0.26 0.26 0.28 0.27 0.24 0.19 0.25 0.23 0.25 0.32 0.33 0.37 0.39 0.39 0.38 0.39 0.40 0.41 0.43 0.46 0.47 0.47 0.48 0.50 0.50 0.50 0.51 0.54 0.56 0.58 0.59 0.59 0.59 0.58 0.57 0.56 0.54 0.52 0.51 0.49 0.47 0.47 0.46 0.45 0.45 0.45 0.44 0.44 0.43 0.42 0.41 0.39 0.38 0.40 0.41 0.42 0.43 0.45 0.48 0.50 0.52 0.54 0.54 0.55 0.54 0.54 0.53 0.54 0.56
0.32 0.32 0.39 0.38 0.36 0.42 0.44 0.43 0.42 0.42 0.41 0.36 0.28 0.31 0.38 0.40 0.35 0.27 0.19 0.23 0.21 0.17 0.18 0.24 0.20 0.21 0.22 0.19 0.35 0.36 0.34 0.35 0.36 0.38 0.40 0.42 0.45 0.44 0.46 0.47 0.48 0.48 0.49 0.51 0.55 0.58 0.59 0.59 0.59 0.58 0.57 0.56 0.54 0.54 0.52 0.51 0.49 0.49 0.48 0.47 0.46 0.45 0.43 0.44 0.44 0.43 0.41 0.40 0.38 0.37 0.39 0.41 0.43 0.44 0.45 0.48 0.50 0.53 0.54 0.55 0.56 0.56 0.54 0.54 0.54 0.56
0.38 0.31 0.36 0.38 0.37 0.38 0.41 0.42 0.40 0.43 0.45 0.37 0.33 0.43 0.30 0.25 0.23 0.28 0.24 0.16 0.16 0.16 0.18 0.21 0.23 0.23 0.24 0.23 0.30 0.30 0.31 0.34 0.36 0.39 0.39 0.40 0.42 0.43 0.44 0.45 0.47 0.48 0.49 0.50 0.52 0.54 0.56 0.55 0.55 0.54 0.54 0.55 0.55 0.55 0.53 0.51 0.49 0.49 0.49 0.48 0.47 0.43 0.43 0.43 0.43 0.42 0.41 0.40 0.38 0.38 0.39 0.41 0.43 0.45 0.46 0.49 0.52 0.54 0.54 0.54 0.56 0.56 0.57 0.57 0.57 0.57
0.39 0.30 0.33 0.40 0.39 0.40 0.38 0.38 0.30 0.34 0.44 0.45 0.43 0.37 0.41 0.33 0.28 0.24 0.25 0.25 0.22 0.17 0.17 0.18 0.22 0.19 0.28 0.29 0.31 0.30 0.34 0.35 0.37 0.38 0.38 0.39 0.41 0.42 0.43 0.45 0.46 0.48 0.49 0.51 0.53 0.54 0.55 0.55 0.56 0.56 0.55 0.55 0.55 0.55 0.54 0.51 0.50 0.49 0.49 0.48 0.46 0.45 0.44 0.42 0.40 0.40 0.39 0.38 0.37 0.37 0.39 0.42 0.45 0.46 0.46 0.49 0.52 0.54 0.54 0.56 0.58 0.58 0.59 0.60 0.61 0.60
0.37 0.39 0.30 0.37 0.43 0.41 0.32 0.36 0.32 0.35 0.34 0.36 0.36 0.34 0.36 0.34 0.39 0.33 0.32 0.26 0.22 0.20 0.20 0.19 0.18 0.22 0.30 0.36 0.34 0.34 0.36 0.38 0.39 0.39 0.40 0.41 0.43 0.44 0.46 0.46 0.47 0.48 0.50 0.52 0.53 0.53 0.54 0.55 0.56 0.56 0.57 0.58 0.58 0.57 0.55 0.52 0.50 0.50 0.49 0.47 0.45 0.43 0.41 0.39 0.39 0.39 0.37 0.36 0.35 0.36 0.38 0.41 0.45 0.46 0.48 0.51 0.54 0.56 0.57 0.58 0.60 0.61 0.64 0.66 0.64 0.63
0.40 0.39 0.33 0.37 0.37 0.36 0.37 0.41 0.40 0.39 0.39 0.37 0.35 0.33 0.35 0.33 0.29 0.24 0.22 0.32 0.29 0.24 0.21 0.19 0.18 0.25 0.33 0.40 0.39 0.38 0.40 0.41 0.43 0.42 0.41 0.42 0.43 0.45 0.47 0.48 0.49 0.49 0.51 0.53 0.53 0.54 0.55 0.57 0.58 0.59 0.61 0.61 0.59 0.56 0.54 0.53 0.51 0.49 0.48 0.47 0.45 0.44 0.41 0.39 0.38 0.37 0.36 0.35 0.35 0.35 0.38 0.41 0.46 0.48 0.50 0.52 0.56 0.56 0.58 0.60 0.61 0.64 0.67 0.67 0.68 0.66
0.48 0.45 0.40 0.35 0.37 0.38 0.41 0.43 0.45 0.43 0.41 0.40 0.39 0.35 0.38 0.37 0.35 0.29 0.22 0.25 0.29 0.29 0.30 0.28 0.23 0.25 0.37 0.40 0.42 0.43 0.44 0.44 0.45 0.45 0.43 0.42 0.43 0.45 0.48 0.50 0.51 0.52 0.53 0.54 0.55 0.56 0.58 0.59 0.59 0.60 0.60 0.58 0.56 0.55 0.55 0.53 0.51 0.49 0.48 0.47 0.46 0.43 0.40 0.40 0.37 0.37 0.36 0.35 0.35 0.36 0.39 0.43 0.46 0.49 0.51 0.54 0.57 0.57 0.59 0.61 0.63 0.66 0.67 0.69 0.70 0.71
0.57 0.44 0.38 0.38 0.41 0.42 0.45 0.49 0.49 0.48 0.44 0.38 0.40 0.42 0.39 0.35 0.36 0.33 0.31 0.32 0.28 0.29 0.27 0.26 0.22 0.26 0.36 0.44 0.46 0.47 0.47 0.47 0.47 0.45 0.43 0.43 0.44 0.46 0.48 0.50 0.51 0.53 0.55 0.57 0.58 0.58 0.59 0.60 0.61 0.60 0.58 0.56 0.55 0.55 0.54 0.53 0.51 0.50 0.49 0.47 0.46 0.42 0.40 0.38 0.36 0.36 0.36 0.36 0.36 0.37 0.39 0.42 0.47 0.50 0.52 0.54 0.58 0.59 0.60 0.63 0.66 0.69 0.69 0.71 0.72 0.71
0.42 0.43 0.40 0.33 0.32 0.34 0.38 0.44 0.43 0.47 0.46 0.39 0.37 0.40 0.42 0.43 0.43 0.42 0.40 0.39 0.29 0.29 0.29 0.26 0.19 0.24 0.36 0.44 0.45 0.45 0.46 0.45 0.45 0.46 0.46 0.43 0.46 0.47 0.49 0.52 0.54 0.55 0.56 0.57 0.58 0.58 0.59 0.59 0.59 0.58 0.56 0.54 0.54 0.55 0.54 0.52 0.50 0.49 0.48 0.47 0.44 0.42 0.40 0.37 0.36 0.35 0.35 0.35 0.35 0.36 0.39 0.42 0.47 0.50 0.51 0.54 0.59 0.61 0.62 0.64 0.68 0.71 0.71 0.72 0.73 0.74
0.50 0.44 0.41 0.32 0.28 0.25 0.25 0.26 0.29 0.34 0.38 0.42 0.42 0.41 0.42 0.40 0.39 0.36 0.31 0.34 0.27 0.31 0.31 0.26 0.24 0.31 0.39 0.42 0.41 0.43 0.43 0.43 0.45 0.46 0.47 0.47 0.47 0.48 0.50 0.53 0.54 0.54 0.55 0.57 0.58 0.58 0.58 0.59 0.59 0.57 0.55 0.54 0.55 0.55 0.53 0.51 0.50 0.49 0.48 0.46 0.45 0.41 0.38 0.36 0.36 0.35 0.35 0.35 0.34 0.35 0.39 0.43 0.46 0.49 0.52 0.55 0.58 0.61 0.63 0.65 0.66 0.68 0.69 0.71 0.73 0.74
0.52 0.51 0.47 0.42 0.36 0.32 0.35 0.39 0.44 0.45 0.40 0.34 0.36 0.38 0.38 0.41 0.42 0.39 0.36 0.31 0.27 0.31 0.30 0.31 0.31 0.32 0.34 0.38 0.40 0.41 0.42 0.42 0.43 0.46 0.46 0.47 0.48 0.50 0.51 0.52 0.53 0.53 0.54 0.56 0.57 0.58 0.58 0.58 0.56 0.54 0.54 0.55 0.56 0.55 0.52 0.51 0.50 0.49 0.47 0.45 0.43 0.40 0.37 0.36 0.35 0.35 0.34 0.34 0.34 0.35 0.39 0.43 0.46 0.49 0.52 0.56 0.58 0.60 0.62 0.65 0.68 0.69 0.69 0.70 0.71 0.72
0.51 0.44 0.46 0.45 0.43 0.43 0.45 0.44 0.45 0.44 0.39 0.38 0.37 0.36 0.39 0.40 0.42 0.39 0.34 0.30 0.37 0.33 0.26 0.33 0.36 0.33 0.33 0.37 0.38 0.39 0.40 0.42 0.45 0.46 0.48 0.49 0.50 0.50 0.51 0.53 0.54 0.54 0.55 0.56 0.55 0.55 0.54 0.55 0.54 0.54 0.54 0.55 0.55 0.54 0.53 0.53 0.52 0.50 0.47 0.42 0.40 0.39 0.36 0.35 0.35 0.35 0.34 0.34 0.34 0.36 0.40 0.44 0.47 0.49 0.53 0.56 0.57 0.58 0.60 0.64 0.66 0.68 0.70 0.70 0.69 0.71
0.50 0.43 0.48 0.47 0.45 0.46 0.46 0.45 0.46 0.43 0.42 0.40 0.39 0.38 0.37 0.39 0.40 0.36 0.36 0.38 0.37 0.31 0.26 0.33 0.36 0.33 0.35 0.37 0.39 0.40 0.41 0.43 0.45 0.47 0.49 0.51 0.52 0.52 0.51 0.51 0.52 0.53 0.53 0.53 0.52 0.53 0.53 0.52 0.52 0.54 0.55 0.55 0.54 0.52 0.52 0.52 0.51 0.49 0.45 0.41 0.39 0.37 0.35 0.36 0.36 0.34 0.34 0.34 0.34 0.37 0.42 0.45 0.48 0.50 0.51 0.52 0.51 0.52 0.55 0.61 0.65 0.66 0.67 0.68 0.68 0.69
0.52 0.44 0.47 0.47 0.45 0.47 0.48 0.48 0.49 0.45 0.44 0.43 0.42 0.42 0.43 0.43 0.41 0.41 0.39 0.39 0.37 0.34 0.35 0.35 0.35 0.34 0.37 0.38 0.41 0.43 0.46 0.47 0.47 0.50 0.51 0.49 0.49 0.50 0.50 0.50 0.51 0.52 0.51 0.51 0.51 0.51 0.52 0.53 0.54 0.55 0.56 0.54 0.53 0.52 0.51 0.51 0.49 0.46 0.41 0.38 0.37 0.35 0.36 0.37 0.35 0.34 0.33 0.33 0.36 0.41 0.44 0.46 0.47 0.48 0.48 0.48 0.47 0.48 0.51 0.54 0.58 0.62 0.63 0.64 0.66 0.66
0.50 0.42 0.49 0.48 0.43 0.42 0.46 0.49 0.50 0.48 0.46 0.41 0.43 0.44 0.45 0.44 0.43 0.43 0.42 0.41 0.42 0.39 0.39 0.38 0.37 0.35 0.41 0.45 0.45 0.48 0.49 0.49 0.49 0.46 0.46 0.48 0.49 0.49 0.50 0.50 0.49 0.49 0.50 0.49 0.50 0.51 0.53 0.54 0.55 0.55 0.54 0.53 0.52 0.52 0.51 0.49 0.46 0.42 0.39 0.38 0.36 0.35 0.36 0.37 0.35 0.33 0.33 0.35 0.41 0.44 0.44 0.44 0.44 0.45 0.45 0.45 0.46 0.47 0.50 0.52 0.54 0.55 0.58 0.60 0.63 0.65
0.54 0.45 0.50 0.45 0.37 0.36 0.42 0.43 0.45 0.48 0.47 0.44 0.42 0.42 0.43 0.42 0.39 0.40 0.39 0.41 0.39 0.35 0.37 0.37 0.34 0.33 0.40 0.47 0.48 0.47 0.47 0.46 0.44 0.44 0.45 0.47 0.50 0.51 0.50 0.49 0.48 0.48 0.49 0.50 0.51 0.53 0.54 0.55 0.54 0.54 0.53 0.53 0.52 0.52 0.50 0.47 0.43 0.39 0.37 0.37 0.35 0.36 0.37 0.36 0.34 0.33 0.35 0.40 0.43 0.43 0.42 0.42 0.42 0.42 0.43 0.44 0.44 0.46 0.48 0.52 0.52 0.52 0.53 0.56 0.59 0.62
0.50 0.46 0.41 0.41 0.35 0.33 0.39 0.43 0.43 0.44 0.42 0.36 0.36 0.41 0.43 0.42 0.43 0.42 0.42 0.42 0.39 0.38 0.33 0.31 0.32 0.40 0.44 0.47 0.44 0.44 0.45 0.45 0.46 0.46 0.47 0.49 0.51 0.51 0.49 0.48 0.48 0.49 0.50 0.51 0.52 0.53 0.54 0.54 0.54 0.54 0.53 0.53 0.53 0.51 0.48 0.45 0.40 0.38 0.38 0.36 0.37 0.37 0.35 0.34 0.34 0.36 0.39 0.42 0.41 0.40 0.41 0.41 0.41 0.41 0.40 0.41 0.42 0.44 0.46 0.50 0.52 0.51 0.51 0.51 0.56 0.60
0.51 0.47 0.43 0.46 0.34 0.34 0.39 0.41 0.44 0.37 0.27 0.27 0.41 0.45 0.43 0.39 0.39 0.36 0.36 0.39 0.42 0.42 0.39 0.41 0.40 0.44 0.45 0.45 0.43 0.43 0.44 0.45 0.47 0.50 0.52 0.49 0.49 0.49 0.50 0.51 0.51 0.52 0.52 0.53 0.53 0.54 0.55 0.55 0.55 0.55 0.55 0.54 0.53 0.51 0.47 0.44 0.41 0.39 0.39 0.38 0.37 0.35 0.34 0.34 0.36 0.39 0.41 0.41 0.40 0.40 0.41 0.41 0.40 0.38 0.38 0.39 0.40 0.42 0.44 0.47 0.50 0.51 0.52 0.51 0.53 0.55
0.47 0.47 0.44 0.47 0.38 0.35 0.40 0.41 0.34 0.26 0.27 0.40 0.46 0.47 0.46 0.44 0.43 0.40 0.40 0.41 0.42 0.44 0.43 0.42 0.43 0.45 0.46 0.46 0.47 0.47 0.48 0.50 0.53 0.51 0.52 0.54 0.54 0.52 0.51 0.52 0.53 0.53 0.53 0.53 0.53 0.54 0.55 0.55 0.55 0.55 0.55 0.54 0.52 0.49 0.45 0.42 0.41 0.40 0.38 0.37 0.35 0.35 0.35 0.37 0.39 0.41 0.41 0.40 0.40 0.41 0.41 0.40 0.39 0.38 0.38 0.38 0.39 0.40 0.42 0.45 0.48 0.50 0.51 0.51 0.50 0.51
0.46 0.45 0.45 0.43 0.43 0.42 0.37 0.35 0.24 0.25 0.40 0.45 0.47 0.49 0.51 0.48 0.46 0.42 0.38 0.41 0.43 0.44 0.45 0.42 0.44 0.46 0.47 0.48 0.49 0.50 0.50 0.51 0.52 0.53 0.54 0.55 0.56 0.55 0.54 0.53 0.54 0.55 0.54 0.55 0.55 0.55 0.55 0.55 0.55 0.55 0.54 0.54 0.51 0.47 0.44 0.40 0.40 0.38 0.36 0.37 0.35 0.35 0.37 0.39 0.40 0.40 0.41 0.40 0.41 0.41 0.41 0.40 0.39 0.38 0.38 0.38 0.39 0.39 0.41 0.44 0.46 0.46 0.50 0.52 0.51 0.52
0.52 0.50 0.47 0.39 0.46 0.33 0.35 0.34 0.32 0.40 0.39 0.41 0.41 0.45 0.46 0.42 0.43 0.40 0.33 0.38 0.46 0.47 0.46 0.45 0.46 0.48 0.48 0.49 0.51 0.51 0.52 0.51 0.48 0.49 0.55 0.56 0.57 0.59 0.58 0.57 0.58 0.57 0.57 0.57 0.57 0.56 0.57 0.58 0.58 0.57 0.55 0.52 0.49 0.44 0.41 0.39 0.38 0.36 0.35 0.35 0.36 0.37 0.39 0.40 0.40 0.40 0.40 0.41 0.42 0.42 0.42 0.40 0.38 0.37 0.37 0.38 0.38 0.39 0.41 0.44 0.45 0.46 0.48 0.48 0.50 0.50
0.59 0.48 0.50 0.41 0.39 0.43 0.35 0.32 0.33 0.32 0.27 0.35 0.44 0.52 0.57 0.56 0.54 0.52 0.45 0.39 0.48 0.49 0.51 0.48 0.47 0.48 0.49 0.51 0.52 0.52 0.53 0.47 0.42 0.46 0.54 0.57 0.59 0.59 0.61 0.60 0.60 0.59 0.58 0.58 0.59 0.60 0.60 0.60 0.60 0.58 0.55 0.50 0.46 0.44 0.41 0.38 0.36 0.35 0.35 0.35 0.37 0.38 0.39 0.40 0.40 0.41 0.41 0.41 0.41 0.41 0.41 0.40 0.38 0.37 0.37 0.38 0.38 0.40 0.43 0.46 0.47 0.47 0.49 0.47 0.47 0.49
0.58 0.58 0.53 0.45 0.39 0.40 0.37 0.31 0.30 0.28 0.32 0.44 0.47 0.54 0.56 0.59 0.56 0.55 0.44 0.35 0.47 0.50 0.53 0.52 0.50 0.51 0.51 0.50 0.51 0.53 0.48 0.41 0.42 0.47 0.55 0.57 0.58 0.60 0.58 0.59 0.58 0.58 0.58 0.59 0.59 0.59 0.60 0.60 0.58 0.56 0.53 0.49 0.44 0.44 0.42 0.39 0.37 0.35 0.34 0.35 0.37 0.39 0.39 0.40 0.41 0.41 0.42 0.42 0.42 0.41 0.41 0.40 0.39 0.38 0.38 0.38 0.40 0.42 0.43 0.46 0.47 0.49 0.50 0.50 0.50 0.50
0.50 0.49 0.48 0.42 0.38 0.39 0.37 0.32 0.30 0.36 0.35 0.46 0.53 0.56 0.59 0.61 0.59 0.49 0.30 0.31 0.48 0.54 0.55 0.54 0.52 0.52 0.53 0.54 0.54 0.51 0.46 0.41 0.44 0.50 0.57 0.58 0.59 0.60 0.59 0.57 0.57 0.58 0.59 0.61 0.62 0.62 0.61 0.60 0.58 0.54 0.50 0.47 0.45 0.45 0.43 0.40 0.36 0.35 0.35 0.36 0.38 0.39 0.40 0.41 0.42 0.44 0.45 0.44 0.43 0.42 0.42 0.41 0.39 0.39 0.39 0.39 0.42 0.44 0.46 0.49 0.50 0.50 0.50 0.51 0.51 0.49
0.43 0.44 0.45 0.37 0.38 0.39 0.37 0.35 0.38 0.39 0.48 0.52 0.54 0.58 0.59 0.61 0.52 0.34 0.27 0.38 0.54 0.56 0.58 0.57 0.55 0.56 0.58 0.57 0.57 0.50 0.53 0.55 0.56 0.59 0.62 0.63 0.61 0.60 0.61 0.60 0.60 0.61 0.60 0.61 0.61 0.62 0.60 0.58 0.56 0.53 0.50 0.49 0.48 0.47 0.44 0.39 0.35 0.34 0.36 0.37 0.38 0.39 0.42 0.44 0.45 0.46 0.46 0.44 0.43 0.42 0.42 0.41 0.41 0.40 0.42 0.43 0.44 0.46 0.48 0.50 0.50 0.51 0.51 0.51 0.51 0.51
0.41 0.42 0.43 0.44 0.38 0.36 0.38 0.34 0.34 0.39 0.48 0.55 0.59 0.58 0.62 0.49 0.34 0.32 0.50 0.59 0.58 0.56 0.58 0.57 0.54 0.56 0.57 0.57 0.58 0.57 0.58 0.61 0.61 0.63 0.65 0.65 0.62 0.61 0.60 0.60 0.61 0.62 0.64 0.64 0.63 0.61 0.58 0.56 0.55 0.54 0.52 0.51 0.50 0.49 0.44 0.38 0.35 0.35 0.36 0.36 0.37 0.42 0.45 0.46 0.46 0.46 0.45 0.44 0.42 0.42 0.41 0.41 0.42 0.43 0.44 0.45 0.47 0.47 0.48 0.50 0.51 0.51 0.51 0.52 0.51 0.50
0.39 0.36 0.35 0.36 0.41 0.41 0.39 0.34 0.31 0.27 0.45 0.55 0.58 0.54 0.57 0.41 0.43 0.55 0.57 0.57 0.58 0.56 0.55 0.56 0.56 0.56 0.58 0.56 0.59 0.59 0.59 0.60 0.61 0.61 0.62 0.63 0.62 0.60 0.60 0.61 0.61 0.61 0.61 0.62 0.61 0.61 0.58 0.56 0.54 0.53 0.51 0.52 0.52 0.50 0.44 0.38 0.35 0.35 0.36 0.36 0.39 0.44 0.46 0.46 0.44 0.43 0.43 0.43 0.42 0.42 0.41 0.41 0.41 0.42 0.44 0.46 0.47 0.46 0.47 0.49 0.50 0.51 0.53 0.53 0.52 0.52
0.48 0.36 0.36 0.38 0.43 0.33 0.33 0.30 0.31 0.41 0.51 0.59 0.54 0.44 0.52 0.54 0.59 0.59 0.56 0.53 0.56 0.56 0.55 0.55 0.56 0.58 0.59 0.57 0.57 0.57 0.59 0.59 0.60 0.62 0.62 0.62 0.63 0.63 0.63 0.63 0.63 0.63 0.62 0.62 0.61 0.59 0.58 0.56 0.54 0.53 0.52 0.52 0.52 0.50 0.44 0.37 0.35 0.35 0.35 0.36 0.42 0.45 0.46 0.45 0.44 0.44 0.42 0.42 0.42 0.42 0.41 0.41 0.42 0.42 0.44 0.46 0.47 0.48 0.47 0.47 0.49 0.51 0.53 0.53 0.52 0.51
0.48 0.41 0.45 0.37 0.47 0.40 0.36 0.41 0.49 0.55 0.57 0.58 0.57 0.55 0.57 0.59 0.61 0.61 0.58 0.55 0.53 0.55 0.58 0.55 0.54 0.56 0.58 0.57 0.57 0.57 0.56 0.57 0.58 0.60 0.59 0.60 0.64 0.63 0.63 0.63 0.63 0.62 0.62 0.61 0.59 0.59 0.58 0.56 0.53 0.53 0.52 0.52 0.52 0.50 0.43 0.39 0.36 0.36 0.35 0.38 0.42 0.44 0.44 0.44 0.44 0.42 0.41 0.42 0.42 0.41 0.40 0.41 0.42 0.42 0.44 0.46 0.48 0.47 0.47 0.47 0.49 0.51 0.54 0.54 0.53 0.52
0.50 0.50 0.52 0.46 0.42 0.49 0.51 0.50 0.51 0.51 0.53 0.54 0.58 0.59 0.57 0.58 0.59 0.58 0.55 0.53 0.55 0.56 0.57 0.55 0.55 0.56 0.56 0.58 0.56 0.56 0.57 0.58 0.58 0.59 0.61 0.63 0.63 0.64 0.65 0.64 0.64 0.64 0.63 0.61 0.59 0.58 0.58 0.56 0.54 0.53 0.51 0.51 0.52 0.49 0.43 0.39 0.38 0.35 0.37 0.40 0.42 0.43 0.44 0.43 0.42 0.41 0.40 0.42 0.42 0.41 0.39 0.39 0.42 0.43 0.44 0.46 0.47 0.48 0.48 0.49 0.50 0.51 0.53 0.53 0.53 0.53
0.49 0.51 0.47 0.40 0.46 0.41 0.33 0.48 0.47 0.48 0.51 0.52 0.53 0.57 0.58 0.57 0.56 0.56 0.55 0.55 0.56 0.58 0.58 0.59 0.58 0.58 0.58 0.58 0.57 0.56 0.57 0.59 0.59 0.60 0.62 0.64 0.64 0.64 0.64 0.63 0.63 0.63 0.62 0.59 0.59 0.58 0.57 0.56 0.53 0.52 0.51 0.49 0.50 0.46 0.41 0.38 0.39 0.39 0.40 0.40 0.41 0.42 0.43 0.42 0.41 0.40 0.40 0.41 0.42 0.40 0.38 0.37 0.41 0.43 0.44 0.46 0.47 0.48 0.49 0.50 0.51 0.52 0.54 0.54 0.54 0.53
0.40 0.55 0.44 0.44 0.43 0.38 0.37 0.44 0.47 0.50 0.51 0.53 0.53 0.51 0.51 0.53 0.55 0.56 0.57 0.58 0.58 0.59 0.59 0.59 0.60 0.58 0.59 0.56 0.57 0.56 0.57 0.60 0.60 0.60 0.61 0.63 0.66 0.66 0.65 0.63 0.62 0.62 0.62 0.61 0.60 0.59 0.57 0.55 0.53 0.52 0.50 0.48 0.46 0.43 0.39 0.38 0.38 0.40 0.40 0.40 0.40 0.41 0.42 0.41 0.40 0.39 0.39 0.40 0.41 0.39 0.37 0.36 0.40 0.43 0.44 0.45 0.45 0.47 0.48 0.50 0.52 0.53 0.55 0.55 0.55 0.54
0.47 0.49 0.37 0.42 0.38 0.41 0.46 0.47 0.47 0.48 0.48 0.49 0.51 0.53 0.54 0.54 0.54 0.55 0.56 0.56 0.56 0.55 0.56 0.58 0.59 0.58 0.57 0.56 0.59 0.59 0.57 0.58 0.61 0.62 0.62 0.65 0.63 0.64 0.63 0.62 0.63 0.62 0.61 0.60 0.60 0.59 0.56 0.55 0.54 0.52 0.49 0.46 0.44 0.40 0.37 0.37 0.38 0.39 0.39 0.39 0.39 0.40 0.40 0.39 0.39 0.40 0.39 0.39 0.39 0.36 0.36 0.36 0.40 0.43 0.44 0.43 0.44 0.47 0.49 0.49 0.52 0.55 0.58 0.60 0.59 0.57
0.45 0.38 0.43 0.41 0.35 0.34 0.35 0.38 0.44 0.37 0.37 0.44 0.48 0.51 0.53 0.55 0.55 0.54 0.54 0.54 0.54 0.54 0.55 0.54 0.55 0.57 0.58 0.59 0.60 0.62 0.60 0.60 0.62 0.63 0.64 0.66 0.66 0.64 0.63 0.63 0.63 0.62 0.61 0.61 0.61 0.59 0.57 0.56 0.54 0.50 0.46 0.44 0.42 0.39 0.36 0.36 0.37 0.38 0.38 0.38 0.38 0.39 0.38 0.38 0.38 0.38 0.38 0.37 0.35 0.34 0.34 0.36 0.39 0.43 0.43 0.41 0.40 0.42 0.46 0.51 0.54 0.57 0.59 0.59 0.61 0.61
0.41 0.41 0.42 0.37 0.35 0.34 0.42 0.46 0.49 0.48 0.46 0.48 0.50 0.53 0.55 0.56 0.55 0.53 0.52 0.52 0.53 0.54 0.55 0.54 0.54 0.55 0.56 0.59 0.64 0.64 0.63 0.63 0.63 0.65 0.65 0.66 0.65 0.64 0.64 0.64 0.63 0.61 0.60 0.60 0.59 0.58 0.57 0.54 0.50 0.46 0.43 0.42 0.40 0.37 0.36 0.35 0.36 0.36 0.36 0.37 0.37 0.38 0.38 0.37 0.36 0.36 0.37 0.35 0.31 0.32 0.33 0.35 0.36 0.39 0.38 0.36 0.35 0.37 0.40 0.44 0.49 0.55 0.59 0.62 0.63 0.63
Wind_Speed
8 8 9 9 9 9 9 8 7 7 7 7 7 7 8 8 10 10 10 10 8 7 8 8 7 8 9 11 10 8 7 6 5 6 6 7 6 6 6 7 8 9 10 9 9 9 9 10 11 12 13 13 14 15 16 17 17 18 18 19 19 19 19 19 20 20 20 20 21 22 22 22 23 23 24 25 26 27 28 28 29 29 29 30 30 30
8 9 10 10 10 10 9 9 8 7 7 7 7 8 9 9 10 10 9 11 9 7 8 8 8 8 10 12 10 8 8 7 7 7 8 8 7 7 6 6 8 8 10 10 10 10 9 10 10 11 13 13 14 15 16 17 18 18 20 20 21 22 22 21 21 22 22 22 22 23 23 24 24 24 24 25 26 27 28 28 29 29 30 31 31 31
9 10 12 11 10 9 8 8 8 8 7 7 7 7 9 9 10 10 10 10 8 7 8 8 8 9 11 12 10 9 9 9 8 8 8 8 8 8 7 7 7 8 9 10 11 11 10 11 11 12 13 14 14 15 17 18 18 20 21 22 23 24 24 24 23 23 23 23 24 24 24 25 25 25 25 25 26 27 28 28 29 30 30 31 31 31
10 11 11 10 9 9 9 8 7 7 7 7 7 7 9 9 9 9 9 9 8 7 8 8 8 10 11 10 9 10 10 9 9 8 8 9 9 9 8 8 8 7 8 9 10 11 11 12 12 12 13 14 15 16 17 18 19 20 21 22 24 25 25 26 25 25 25 25 25 26 26 26 26 26 26 26 26 27 27 28 29 29 30 30 31 32
12 13 10 8 8 9 9 8 7 8 9 9 8 8 9 9 8 8 9 9 9 9 8 7 9 10 11 10 10 10 9 9 10 9 8 9 9 9 9 9 8 8 8 8 9 10 11 12 12 13 13 14 15 16 17 17 18 19 20 21 22 23 25 26 26 26 27 27 27 27 27 27 27 26 26 27 27 27 28 28 29 29 30 31 31 31
13 13 10 8 8 8 8 8 9 9 9 10 10 10 9 9 8 8 8 8 8 9 9 8 8 10 10 9 10 10 9 9 9 9 9 9 9 9 9 9 9 9 9 9 9 10 11 11 12 12 13 13 14 15 15 16 17 17 18 19 20 21 22 23 24 25 26 27 27 28 28 28 28 28 27 27 28 28 28 29 29 29 30 31 31 31
12 12 9 9 8 7 7 9 10 8 8 10 11 10 9 8 7 8 8 8 8 9 10 9 8 10 10 9 10 10 9 9 9 9 10 9 9 10 10 10 10 10 10 10 10 10 10 11 11 12 12 12 13 13 14 15 16 16 17 18 19 20 21 22 23 24 25 26 27 27 28 29 29 29 29 29 29 29 29 30 30 30 30 31 31 32
12 11 9 9 8 7 8 10 10 8 7 11 11 8 7 7 7 8 7 8 9 10 11 10 8 9 11 11 11 9 9 10 10 11 11 10 10 10 11 11 11 11 11 11 11 11 11 11 11 11 11 11 12 13 14 14 15 16 17 18 19 20 21 22 23 23 24 25 25 26 28 29 30 31 31 31 31 31 31 31 31 31 31 31 32 32
10 11 10 9 8 9 10 10 9 8 8 11 10 7 8 8 8 8 7 8 10 10 11 12 9 9 11 11 10 9 9 11 12 13 12 11 11 11 11 11 11 11 11 11 11 11 11 11 10 10 10 11 12 13 14 14 15 16 17 18 19 20 21 22 23 24 24 25 26 26 27 28 30 31 32 33 33 32 32 32 32 32 32 32 33 33
10 11 11 9 9 11 11 10 9 8 9 10 7 7 8 8 8 8 8 9 9 9 11 12 10 9 10 11 9 9 11 13 12 12 13 13 12 12 12 12 12 11 11 11 12 12 12 11 11 11 12 12 13 14 14 15 16 16 17 18 19 20 21 22 23 24 25 26 26 27 27 28 29 31 32 33 34 34 34 34 34 34 33 33 33 34
11 11 11 10 10 11 10 9 9 8 8 8 7 7 9 9 9 10 10 9 8 10 11 11 10 8 10 10 9 9 11 11 11 11 12 13 14 14 14 13 13 12 12 12 12 13 13 13 13 13 13 14 14 14 15 16 17 17 18 18 19 20 21 22 23 24 25 26 27 28 29 29 30 31 32 33 34 35 36 36 36 35 35 35 34 35
11 10 11 11 11 10 9 8 9 9 8 7 8 8 9 10 10 10 10 9 8 10 10 10 9 8 9 10 10 10 11 10 10 12 12 13 15 15 14 14 14 13 13 13 13 13 14 14 14 15 15 15 15 15 16 16 17 18 18 19 20 21 22 22 23 24 25 26 27 28 29 30 31 32 32 33 34 35 36 37 37 37 37 36 36 36
11 12 11 11 11 10 9 9 10 9 8 7 7 7 8 9 9 9 10 9 9 10 10 9 9 8 10 11 10 11 12 10 11 12 12 14 15 15 15 15 15 14 15 15 14 14 14 15 15 15 15 16 16 16 17 17 18 19 20 20 21 22 22 22 23 24 25 26 27 28 29 30 31 32 33 33 34 35 36 37 38 38 38 38 38 37
10 12 12 11 11 10 9 10 10 10 9 8 8 7 7 7 7 9 10 9 10 10 9 10 9 9 10 11 10 11 12 12 12 12 13 14 15 16 15 15 15 15 16 15 15 16 16 16 16 17 16 16 17 17 18 18 19 20 21 21 22 23 23 23 24 24 25 26 27 27 28 29 30 31 32 33 34 35 36 37 38 39 39 40 39 39
9 11 11 11 11 10 10 11 11 10 9 10 9 8 9 8 8 10 10 9 10 10 9 10 9 8 8 9 9 9 11 12 12 12 12 13 14 15 15 15 15 16 16 16 16 17 17 18 18 18 17 18 18 18 19 19 20 21 22 23 23 24 24 25 25 26 26 27 27 28 28 28 29 30 31 32 33 34 35 36 38 39 39 40 40 40
9 11 12 12 11 9 9 11 11 10 10 11 10 9 10 10 9 9 9 9 9 9 10 10 10 9 10 10 11 10 10 10 9 9 9 10 12 13 14 15 16 16 16 17 17 17 18 19 19 19 18 18 19 19 20 21 22 23 23 24 24 25 25 26 26 27 27 28 28 28 28 28 29 29 30 31 32 34 35 36 37 39 39 40 41 41
9 11 12 11 11 10 10 11 11 11 11 11 10 11 11 10 8 8 10 9 8 9 10 10 10 11 11 11 11 10 9 9 8 8 8 10 11 13 14 15 15 16 16 17 17 17 17 18 18 19 19 19 19 20 21 22 23 24 25 25 25 26 26 26 27 28 28 28 28 28 28 28 28 28 29 30 31 33 34 35 36 38 39 40 41 42
10 11 12 11 11 12 11 11 11 11 11 10 11 12 11 10 9 9 9 9 9 10 11 10 10 11 10 10 11 10 9 10 9 8 8 9 11 13 14 15 15 16 16 17 17 17 17 17 18 19 19 19 20 20 21 22 23 24 25 26 26 27 28 28 28 28 28 28 28 28 28 27 27 27 28 29 30 31 33 34 35 37 39 40 41 42
10 11 12 11 12 13 12 11 12 13 12 11 12 11 10 10 10 9 9 9 9 10 11 10 11 11 10 11 11 11 11 11 9 9 9 10 12 14 15 15 16 16 16 16 16 16 17 17 18 18 19 19 20 20 21 22 23 24 24 25 26 27 28 28 28 28 28 28 27 27 27 27 27 27 27 27 29 30 32 33 34 36 37 38 40 42
10 11 12 12 12 13 12 11 13 13 13 12 12 11 11 11 10 10 10 9 9 10 10 11 10 10 11 12 11 11 11 10 10 10 10 12 13 14 15 15 16 16 16 16 17 17 17 18 18 18 18 19 19 20 21 22 23 24 24 25 26 26 27 27 27 27 27 27 27 27 26 27 26 26 27 27 28 29 30 32 33 34 35 36 38 40
11 11 13 13 12 13 13 13 13 13 12 12 12 12 12 12 11 11 11 10 9 9 10 10 10 11 12 11 11 12 12 11 11 11 12 13 14 15 16 16 16 16 16 17 17 17 18 18 18 18 19 19 20 21 21 22 23 23 24 25 25 26 26 26 26 26 26 26 26 26 26 26 26 26 26 27 27 28 29 30 31 33 34 35 36 38
12 12 13 14 13 14 15 15 14 14 14 13 13 14 13 12 11 11 12 12 11 10 10 10 11 12 12 11 12 13 12 12 13 13 13 14 15 16 17 17 17 17 17 18 18 18 18 18 18 19 19 20 20 21 22 22 23 23 24 25 25 26 26 27 26 26 26 26 26 26 26 26 26 26 26 27 27 28 28 29 30 31 32 33 34 36
13 12 13 14 14 15 16 16 14 14 14 13 14 14 13 13 12 12 12 13 12 11 11 10 11 12 13 12 12 13 13 13 14 14 15 15 16 17 17 17 17 18 18 18 18 18 18 19 19 19 19 20 21 21 21 22 23 23 24 25 25 26 27 27 27 27 27 26 26 26 26 26 26 26 26 27 27 27 28 28 29 30 30 31 33 34
12 12 13 14 14 14 15 15 14 13 12 12 14 14 13 14 14 14 13 12 12 12 11 11 12 12 13 13 13 13 14 14 15 15 16 16 17 17 18 18 18 18 19 19 19 19 19 19 19 19 19 20 21 21 21 22 23 24 24 25 26 26 27 27 27 27 27 27 27 27 27 26 26 26 26 26 26 27 27 28 28 29 29 30 31 32
12 12 11 11 12 12 12 12 12 13 12 12 13 14 13 13 12 13 14 13 13 13 12 12 13 14 14 14 14 14 14 15 16 16 16 17 17 17 18 18 19 19 19 19 19 19 19 19 19 19 20 20 20 21 21 22 23 24 25 25 26 27 27 27 27 27 27 27 27 27 26 26 26 26 26 26 26 26 27 27 28 28 28 29 29 30
12 12 11 11 11 11 11 11 12 12 12 13 13 14 13 12 12 13 14 13 14 14 13 13 14 15 16 15 16 16 15 16 17 17 17 17 18 18 18 19 19 19 19 20 19 19 19 19 19 19 19 20 20 20 21 22 24 24 25 26 26 27 27 27 27 27 26 26 26 26 26 26 26 26 26 26 26 26 27 27 27 27 27 28 29 30
12 12 13 13 14 14 13 13 13 13 13 14 15 15 15 14 14 14 14 15 15 15 15 16 16 17 17 17 18 17 17 17 18 17 16 17 18 18 18 19 19 19 19 19 19 19 19 19 19 19 19 20 20 21 22 23 24 25 26 26 27 27 26 26 26 26 26 25 25 25 25 25 25 26 26 26 26 26 26 26 26 26 26 27 28 29
12 13 14 14 16 16 15 15 14 14 15 15 16 16 16 15 15 15 16 17 16 15 17 17 16 17 18 18 18 19 18 18 18 18 18 17 17 18 18 18 18 19 19 19 19 19 19 19 19 19 19 20 20 21 22 23 24 25 26 26 26 26 26 26 26 26 25 24 24 23 24 24 25 25 26 26 26 27 26 25 24 25 25 26 27 28
13 14 14 14 16 16 16 16 15 15 16 16 16 17 18 17 16 17 19 18 16 17 19 18 16 17 18 18 19 19 18 17 18 19 18 18 17 17 17 17 18 18 18 18 19 19 18 18 18 18 19 20 21 22 23 23 25 26 26 26 26 25 25 25 25 25 24 23 23 23 23 24 25 25 25 25 26 26 25 24 23 23 24 25 26 26
13 14 14 14 15 16 16 16 16 16 17 17 17 18 18 18 18 18 19 19 18 20 20 19 19 19 18 18 19 19 18 17 18 18 18 18 17 16 16 17 17 18 18 18 18 18 17 17 18 18 19 20 21 22 23 24 25 25 25 25 25 25 24 24 25 25 24 23 23 23 23 24 25 25 25 24 24 24 24 23 23 23 24 24 25 26
13 14 14 13 14 15 16 16 16 16 17 18 19 19 18 19 19 18 18 18 18 20 20 19 19 19 17 17 18 18 17 16 16 17 17 17 16 15 16 17 17 17 17 17 17 17 17 17 18 18 19 21 22 22 23 24 25 25 25 25 24 24 24 24 25 24 24 23 23 22 23 23 24 25 25 24 24 24 24 23 23 23 23 24 25 25
14 15 14 14 15 16 16 16 15 15 17 19 20 20 19 19 19 17 17 17 17 17 17 16 17 17 15 14 15 16 15 15 16 17 17 17 16 15 16 17 17 17 17 17 17 17 17 17 18 19 20 21 22 22 23 24 24 24 24 24 23 23 24 24 24 24 24 23 22 22 22 23 24 24 24 24 24 24 24 24 24 24 24 24 24 24
15 16 16 15 16 16 15 14 14 14 16 17 17 17 17 17 16 15 15 15 14 13 13 14 15 15 14 13 14 15 14 14 16 17 16 16 15 15 16 16 16 16 16 16 16 17 17 18 19 19 20 21 22 22 23 23 23 24 23 23 23 23 23 24 24 24 24 23 22 22 22 23 23 24 24 24 24 24 24 24 24 24 24 24 24 24
15 16 16 15 15 15 14 13 13 14 15 15 14 13 13 13 13 13 13 14 13 12 12 13 14 14 14 14 14 15 15 15 16 16 15 14 14 14 15 15 15 15 16 16 16 17 18 19 19 20 20 21 21 22 22 23 23 23 22 22 22 23 23 24 24 24 23 23 22 22 22 23 23 24 25 25 25 24 24 24 25 25 25 24 24 24
15 15 15 14 14 14 13 12 13 13 13 13 13 12 12 11 11 12 13 14 14 14 14 15 15 15 15 15 15 16 17 16 15 15 15 14 13 13 14 14 15 15 15 16 17 18 18 19 19 20 20 21 21 22 22 22 22 22 22 22 22 23 23 24 24 23 23 23 23 22 23 23 24 25 25 25 25 25 25 25 25 25 25 25 24 24
14 13 13 13 13 13 11 11 12 12 12 13 12 11 11 11 11 12 13 13 13 13 13 14 15 15 15 16 16 16 16 14 14 13 13 13 13 13 13 14 14 15 15 16 17 18 18 19 19 19 20 20 21 21 22 22 21 21 21 21 22 22 23 23 23 23 23 23 23 23 23 24 24 25 25 25 25 25 26 26 26 25 25 25 25 25
12 12 12 13 13 12 11 11 12 12 12 12 12 11 11 12 11 11 11 13 13 12 12 13 15 15 15 15 14 13 12 12 12 13 13 13 13 13 14 14 15 15 16 16 17 17 18 18 18 18 19 20 20 21 21 21 20 20 20 21 21 22 22 23 22 22 23 23 23 24 24 24 25 25 25 25 26 26 26 26 26 26 25 25 26 25
12 12 11 12 12 11 12 12 11 10 10 10 10 10 10 11 11 10 11 13 14 13 13 14 14 14 13 12 13 12 12 11 12 14 14 14 14 14 15 15 16 16 16 16 16 17 17 17 17 18 19 20 20 20 20 20 19 19 20 20 21 21 22 22 22 22 22 23 23 24 24 25 25 25 25 25 25 26 26 26 26 26 26 26 26 26
9 9 10 11 12 11 11 11 10 10 11 11 10 10 10 11 11 11 12 14 14 14 13 12 13 13 13 13 13 12 11 12 14 15 16 16 16 16 16 16 16 16 16 16 16 16 16 16 17 18 18 19 20 20 19 19 18 19 19 20 20 21 21 21 22 22 22 23 23 24 24 24 25 24 24 24 24 25 25 25 26 26 26 26 26 26
8 8 8 10 12 12 12 12 11 12 12 12 12 12 12 12 11 11 13 14 14 13 12 12 13 15 15 15 14 12 12 14 15 16 17 17 17 17 17 17 17 16 16 16 16 16 16 16 17 18 18 19 19 19 18 18 18 18 19 19 20 20 20 21 21 21 22 22 23 24 24 24 24 24 23 23 23 24 24 25 25 26 27 27 27 27
10 10 10 11 12 12 13 13 13 13 14 13 14 14 13 12 12 12 13 14 14 14 13 14 15 16 16 16 16 15 16 17 18 19 19 18 17 17 18 17 17 16 16 16 15 15 16 16 17 18 18 18 18 18 18 17 17 18 18 19 19 19 20 20 20 21 21 22 22 23 23 23 23 23 23 22 23 23 23 24 24 25 26 26 27 27
11 10 10 11 11 12 13 13 13 14 13 13 12 13 12 12 12 13 14 14 15 16 17 17 18 18 18 18 19 19 20 21 20 20 21 19 19 18 18 17 16 16 16 16 15 15 16 16 17 17 18 18 18 18 17 17 17 17 18 18 19 19 19 19 20 20 21 22 22 22 22 23 23 23 22 22 22 22 23 23 24 25 25 25 26 26
12 12 12 12 12 12 13 13 13 13 13 11 11 12 13 13 14 15 16 17 18 19 20 20 20 20 19 19 20 21 21 22 22 22 21 21 20 19 18 17 17 16 16 16 16 16 16 17 17 17 17 17 17 17 17 16 17 17 17 18 18 18 18 19 19 20 21 21 21 21 22 22 22 22 22 22 22 23 23 23 24 24 24 24 24 25
13 13 13 13 13 13 13 13 13 13 13 13 13 15 15 16 18 19 19 20 21 21 21 21 21 20 20 20 21 21 22 22 23 23 22 22 21 20 19 18 18 17 17 16 16 16 16 17 17 17 17 17 17 17 16 16 16 16 17 17 18 18 18 18 19 20 20 20 20 21 21 21 22 22 22 22 23 23 23 24 24 24 24 23 23 23
12 13 13 14 15 15 16 16 16 16 16 16 17 18 19 20 20 20 21 22 22 21 20 21 22 22 22 22 22 22 23 23 23 23 22 22 21 21 20 19 18 18 17 17 16 16 16 16 17 17 17 17 17 17 16 16 16 16 16 17 17 17 17 18 19 19 20 19 20 20 20 21 21 22 22 22 22 22 23 24 24 24 23 22 22 22
14 14 15 16 16 17 19 19 18 18 19 19 19 19 20 21 21 21 22 22 22 21 21 22 23 23 23 23 23 23 23 23 23 23 22 21 21 20 20 19 19 18 17 16 16 16 16 16 16 16 17 17 17 16 16 16 15 15 16 16 16 16 17 17 18 19 19 19 19 19 20 20 21 21 22 22 22 22 22 23 24 23 22 21 21 21
15 15 15 16 17 17 17 17 17 18 19 20 21 22 22 23 22 22 22 22 22 22 23 23 23 23 22 22 23 23 23 23 22 22 21 20 20 20 19 19 18 17 16 16 16 16 16 16 16 16 16 16 16 16 16 16 15 15 15 16 16 16 16 16 17 18 18 18 19 19 19 20 20 21 21 21 21 22 23 23 23 23 22 21 21 20
15 15 15 16 16 17 17 18 19 20 21 21 22 22 23 22 22 22 22 22 23 23 23 23 23 23 22 23 23 23 23 23 22 21 20 19 19 19 18 18 17 17 17 16 16 16 16 16 16 16 16 16 16 15 15 15 15 15 15 15 15 15 15 15 16 17 17 17 18 18 18 19 19 20 20 20 21 22 23 23 23 23 22 21 20 19
16 16 16 16 17 17 18 19 20 20 20 19 20 20 20 21 22 22 23 23 23 23 23 23 23 23 23 23 23 23 23 23 21 20 19 19 19 19 18 18 17 17 17 16 16 16 16 16 16 16 16 15 15 15 15 15 14 14 14 14 14 14 14 14 15 16 16 16 17 17 18 18 18 18 19 19 20 21 22 22 23 22 21 20 19 18
16 16 16 16 17 17 17 17 17 17 17 18 20 21 21 21 21 22 22 23 23 23 23 24 24 23 23 23 22 21 22 21 20 20 20 20 20 19 18 17 17 17 16 16 16 16 16 16 16 16 15 15 14 14 14 14 14 14 14 13 13 13 13 13 14 15 15 15 16 16 17 17 17 17 18 18 20 20 21 21 22 21 21 20 19 18
15 15 14 15 16 16 17 19 18 17 17 19 21 22 22 22 22 23 23 24 24 23 23 23 23 23 22 22 21 21 21 21 20 19 19 19 19 19 18 17 17 17 16 16 15 15 16 16 15 15 15 14 14 14 14 14 14 14 13 13 13 13 13 13 13 13 14 15 15 15 16 16 16 17 17 18 18 20 20 21 20 20 20 20 19 19
Wind_Direction
248 251 252 248 250 251 250 250 256 261 262 268 274 279 282 283 290 294 293 294 294 283 281 275 273 286 292 286 281 277 275 263 253 251 249 248 244 235 226 226 229 228 231 236 239 245 250 251 251 255 258 261 266 270 274 277 279 278 276 275 274 273 273 274 274 273 271 270 269 267 265 264 263 262 260 257 255 254 253 252 251 252 252 251 249 247
252 250 248 244 248 252 251 251 255 260 264 270 273 280 287 283 284 289 290 295 297 282 281 283 282 290 291 287 283 279 276 262 244 240 245 244 241 241 234 233 233 231 235 238 242 247 249 253 255 257 259 263 268 273 277 279 280 279 278 278 278 277 277 278 277 275 274 273 272 270 269 267 266 264 262 259 257 256 254 253 252 252 253 251 250 248
260 250 246 249 251 253 254 248 249 259 263 267 272 280 288 287 288 292 292 297 299 289 286 286 284 287 289 286 281 279 279 270 258 253 252 244 240 243 242 240 235 232 235 239 243 246 249 253 256 258 263 267 272 276 280 282 282 281 280 280 278 278 278 278 277 276 275 275 274 273 271 269 267 265 263 261 259 257 256 255 253 252 253 252 250 249
256 248 246 250 248 250 258 254 249 262 268 268 271 279 285 287 289 289 290 295 299 297 291 287 287 289 291 291 284 281 280 273 271 269 265 256 248 247 246 246 243 236 236 241 244 246 249 254 259 264 269 272 275 279 282 284 284 283 281 280 278 276 276 276 275 275 274 274 274 273 272 270 268 266 264 262 260 258 257 255 254 253 253 253 251 249
250 249 250 254 251 250 258 261 255 258 270 274 269 269 277 280 277 277 286 293 299 304 300 299 299 292 290 287 280 282 280 272 271 267 264 262 255 251 248 248 248 244 242 242 244 248 252 256 262 269 271 272 276 280 283 284 284 284 282 281 279 277 276 275 274 273 273 272 272 272 271 270 268 266 265 263 262 260 258 257 256 255 254 253 251 250
250 251 252 255 258 258 258 263 259 252 265 277 270 261 265 269 270 278 291 299 302 302 300 305 302 289 290 284 275 279 274 265 268 265 264 263 253 248 246 247 249 249 250 248 247 250 254 258 263 268 271 273 277 281 283 284 284 284 284 283 283 281 280 278 276 274 273 272 271 271 271 270 269 267 265 264 263 262 260 258 257 256 254 253 252 251
250 251 251 249 252 259 265 269 263 253 262 275 270 261 261 268 274 279 288 295 292 289 292 300 293 284 289 282 272 275 267 259 262 262 263 259 250 246 245 246 249 249 250 249 248 251 254 258 263 268 272 275 279 281 283 284 284 285 286 286 285 285 284 283 281 278 276 273 272 270 269 268 268 267 265 264 263 262 261 260 258 257 255 253 253 252
247 251 255 254 255 260 266 269 263 254 261 270 270 264 261 267 270 272 283 288 284 286 293 299 293 284 285 278 273 272 262 259 258 255 258 255 249 247 243 244 246 245 245 243 245 250 255 259 264 270 276 280 282 282 284 287 289 289 289 289 288 288 286 286 284 283 280 277 274 272 269 268 267 266 265 264 262 261 260 260 259 257 256 254 252 252
248 250 250 248 254 258 260 263 256 252 265 270 271 271 269 269 268 272 281 284 287 292 292 294 293 286 284 281 279 272 256 255 254 251 253 252 249 246 241 239 238 239 240 241 244 250 255 260 265 273 279 282 284 286 289 292 293 294 294 294 293 292 290 289 287 286 284 281 278 275 272 270 268 266 265 264 262 261 260 259 259 258 257 255 253 252
251 251 245 241 250 254 259 264 254 251 269 273 274 284 284 283 281 281 281 281 291 291 282 286 289 285 286 282 275 269 259 256 254 254 255 251 249 246 240 236 234 235 240 244 249 253 257 262 267 274 278 281 285 288 291 294 295 296 296 298 298 296 295 293 291 289 287 284 281 278 276 273 271 269 266 264 263 261 260 259 258 257 257 256 254 252
256 257 250 249 253 251 256 266 260 258 270 274 279 288 287 287 285 284 285 285 291 289 281 284 284 280 286 283 271 268 269 263 253 253 254 249 245 242 239 237 235 237 242 248 254 258 263 267 270 273 275 278 284 288 292 294 296 296 297 299 300 299 297 295 294 292 290 288 284 281 278 276 273 271 268 266 264 262 261 259 258 257 256 255 255 254
263 260 254 258 257 252 256 266 266 270 276 276 280 281 277 282 286 286 289 289 285 285 284 285 286 279 279 282 278 274 279 274 255 249 248 244 242 241 240 238 237 240 245 250 256 261 266 270 271 272 273 277 282 287 292 295 296 298 299 300 301 300 298 296 295 294 292 291 288 284 280 277 275 272 269 267 264 262 261 260 258 257 256 255 254 254
261 255 259 266 260 251 251 257 264 274 279 276 277 278 274 282 290 285 286 287 280 280 282 285 289 282 275 278 277 274 277 275 261 252 246 241 240 241 241 241 240 242 247 252 257 262 266 269 270 271 273 276 280 285 290 293 296 299 300 301 302 301 300 298 296 295 293 292 290 287 283 280 277 274 270 267 265 262 260 259 258 257 256 255 254 253
262 262 267 267 261 255 248 247 256 264 267 264 263 266 268 278 288 283 282 287 284 282 282 284 288 286 284 284 277 273 276 275 268 257 247 241 238 239 241 242 242 244 249 254 258 263 267 269 270 271 273 276 279 283 286 290 295 298 299 299 300 300 300 299 298 296 295 293 291 288 285 282 280 276 273 269 266 264 261 259 258 257 256 255 254 253
255 262 263 259 259 259 252 245 247 253 261 263 260 261 263 264 270 275 275 276 280 283 285 286 286 282 284 284 278 277 281 282 274 260 248 243 241 241 242 242 243 247 251 255 260 264 268 269 269 271 273 276 279 282 285 289 293 296 297 297 297 298 298 298 298 297 296 294 292 289 286 283 281 278 275 271 268 265 263 261 259 257 256 254 253 252
254 259 260 261 259 256 255 251 248 255 266 268 264 264 267 264 265 273 272 269 275 285 286 282 279 276 277 280 284 286 289 290 280 261 246 240 240 241 242 242 244 248 251 255 260 265 269 270 270 271 272 275 279 282 285 289 292 294 295 295 296 296 295 295 295 296 296 294 292 290 287 284 282 279 276 273 271 268 265 262 260 258 256 255 253 252
255 260 264 266 260 253 254 254 255 258 262 267 266 263 265 265 263 269 275 280 284 283 282 279 278 283 286 285 289 292 292 293 283 265 249 239 238 241 243 244 246 250 253 257 261 265 270 271 271 271 272 275 279 283 286 288 290 292 293 294 294 294 295 295 294 294 294 293 291 289 287 286 284 281 278 275 272 270 267 265 262 259 258 256 255 252
252 258 265 262 257 260 261 258 263 264 258 260 264 262 265 270 271 271 276 288 288 279 281 279 274 281 285 285 292 295 288 286 281 270 259 247 243 246 247 248 251 254 257 261 264 266 269 271 273 273 274 276 280 284 286 289 291 292 293 294 294 294 293 294 294 294 293 291 290 289 287 287 286 284 281 277 274 271 269 267 265 262 259 257 255 253
255 257 264 260 256 267 271 262 264 269 263 257 257 261 266 268 271 272 273 279 280 278 283 284 278 276 273 275 285 286 278 278 277 271 265 256 251 251 252 252 255 257 260 263 265 266 268 271 274 275 275 278 282 286 288 290 293 294 295 295 296 295 294 293 293 292 292 291 289 288 287 286 286 286 283 281 277 273 270 269 267 265 263 259 256 254
261 258 261 263 261 267 272 263 259 265 266 263 260 263 266 265 264 267 268 270 273 275 280 285 286 279 272 273 277 275 272 271 270 269 267 261 255 254 254 255 257 259 261 263 265 266 270 273 275 276 277 280 284 287 289 292 294 296 297 298 298 298 297 296 294 292 292 291 289 287 286 286 286 286 285 283 281 277 273 271 269 267 266 263 259 255
267 262 260 265 268 266 266 262 256 255 259 260 259 260 263 264 266 270 272 271 271 273 274 278 282 279 276 277 274 272 272 268 264 265 267 264 259 257 256 256 259 261 263 265 266 269 272 275 276 278 281 283 286 288 290 293 296 297 298 299 300 300 300 299 296 294 292 291 288 286 286 286 286 285 285 284 283 280 276 273 271 269 266 265 262 258
266 263 261 265 267 263 261 261 257 253 252 251 253 256 257 258 262 268 273 274 271 272 271 272 277 278 277 278 276 276 276 273 268 267 269 265 259 257 257 257 259 262 264 266 267 270 274 277 278 280 283 285 287 289 291 295 297 298 299 301 302 303 302 301 299 296 293 291 289 286 285 286 286 285 285 285 285 283 279 275 273 271 268 265 263 260
264 264 264 264 262 260 262 264 262 258 254 251 255 258 258 259 259 259 267 271 271 272 274 276 279 278 279 279 278 280 279 276 273 270 270 268 262 258 257 257 260 262 265 267 268 272 276 277 279 281 283 285 287 290 292 295 298 299 301 302 304 305 304 303 301 297 294 291 289 286 285 285 286 286 286 286 286 286 282 278 275 273 270 266 264 261
267 266 265 266 266 265 267 269 269 264 258 254 257 258 258 260 260 258 262 266 268 268 270 277 278 277 281 284 282 281 281 279 277 272 270 269 265 259 257 257 260 263 266 268 269 273 275 277 280 282 284 286 288 291 293 296 299 301 302 304 305 306 306 305 303 299 294 291 289 287 285 284 285 286 287 287 288 288 286 281 277 274 272 268 265 261
269 265 263 267 270 270 272 273 271 268 260 254 255 257 257 259 260 263 267 269 270 266 262 267 274 275 281 287 287 284 282 281 279 276 272 269 264 260 258 259 262 264 266 267 269 272 274 277 281 282 283 286 289 291 294 297 300 302 304 306 307 308 308 307 305 301 296 291 288 287 285 284 284 286 287 289 290 290 289 285 280 276 273 271 268 263
266 262 258 259 259 260 264 266 264 264 263 260 259 259 259 261 262 265 269 268 268 268 263 263 271 277 282 287 288 287 285 283 282 280 276 271 265 262 261 263 265 265 265 266 268 271 274 278 281 282 284 287 289 292 295 299 302 304 306 308 309 309 309 308 307 304 298 293 288 286 285 284 284 286 288 290 291 292 290 287 283 278 274 273 271 267
261 262 259 256 255 256 259 260 261 262 264 265 266 263 262 264 266 267 268 265 265 269 268 266 270 277 282 284 286 286 285 285 285 283 277 272 267 265 265 267 267 265 266 268 269 270 274 279 281 282 284 287 290 293 297 300 303 306 307 308 309 310 310 310 309 308 302 295 290 287 286 285 285 287 288 290 291 292 290 287 284 280 276 274 273 271
261 265 263 258 260 262 262 264 264 263 263 263 265 266 265 265 265 264 264 265 266 269 271 270 270 274 279 281 282 284 284 283 283 280 276 272 268 265 266 267 267 265 266 269 269 271 275 278 281 283 285 288 291 295 298 302 304 306 308 309 309 310 311 311 311 310 306 298 292 289 287 286 287 288 289 290 291 292 291 288 285 282 279 277 277 275
263 266 263 260 264 266 266 266 264 262 264 263 261 264 267 266 263 262 264 264 264 266 271 273 272 273 279 281 280 281 280 278 277 276 275 274 271 268 266 265 264 264 266 269 270 272 275 278 282 285 286 289 293 296 300 303 305 307 308 309 309 310 311 313 313 312 309 302 295 291 288 288 288 288 290 291 292 292 291 289 286 284 282 280 279 278
265 267 265 263 268 270 268 267 263 260 263 265 262 262 266 267 264 264 266 265 263 266 271 274 274 276 278 278 278 280 280 277 278 279 278 277 274 270 266 265 265 266 267 269 271 273 276 280 283 285 288 292 295 297 301 303 305 307 308 309 310 310 312 314 314 313 310 305 299 294 291 289 289 289 290 292 294 294 292 290 289 287 286 284 282 280
266 268 268 268 272 273 270 269 267 263 263 265 266 265 265 267 268 266 267 268 267 269 271 272 275 279 280 278 278 281 282 281 281 281 279 277 275 271 269 268 268 268 268 269 272 274 278 282 284 287 290 293 295 298 301 303 305 306 308 309 310 310 312 315 315 314 310 306 302 298 295 292 291 290 291 293 294 295 293 291 290 290 289 287 285 283
267 270 274 276 276 274 273 272 270 269 269 267 268 267 265 266 267 267 268 267 265 267 269 270 274 278 280 282 283 284 284 282 281 281 279 277 275 271 269 269 268 268 269 270 273 275 279 282 285 288 291 294 297 299 301 302 305 307 308 310 310 311 312 314 316 315 312 308 305 302 299 296 294 292 292 292 293 293 293 291 290 292 292 291 289 286
265 269 274 275 274 275 276 274 270 271 273 269 267 266 264 263 264 267 269 266 263 263 264 265 270 274 279 286 288 287 285 283 283 282 278 275 272 270 268 268 269 270 271 273 274 276 279 282 285 288 291 295 297 298 300 303 305 307 308 309 310 311 313 314 316 317 315 311 307 304 303 300 298 296 294 292 291 291 291 291 290 291 292 292 291 289
265 267 270 270 271 274 276 275 272 269 268 268 268 265 261 260 257 259 264 263 261 264 267 270 275 278 281 282 281 280 282 283 285 285 282 277 273 272 271 271 272 273 274 275 276 278 281 284 287 289 292 295 297 298 301 303 305 307 308 309 310 312 313 314 316 317 317 315 311 308 306 304 302 300 297 294 292 291 290 290 290 290 291 291 291 290
267 267 269 269 269 273 275 272 268 265 264 269 272 265 259 258 253 256 266 267 263 266 271 275 277 278 280 280 279 280 282 285 286 286 283 279 275 274 273 273 273 274 275 276 278 280 283 285 287 290 292 295 297 299 302 304 305 307 307 308 310 312 314 315 317 318 318 318 316 313 309 306 304 302 299 297 294 292 290 288 288 289 290 289 289 289
263 263 266 267 266 269 270 262 259 265 271 274 273 264 259 263 263 266 273 275 270 265 267 272 276 280 282 283 284 284 283 286 288 285 281 280 279 277 275 274 274 275 276 278 279 281 283 285 286 289 292 295 298 301 303 305 306 306 307 308 311 313 315 317 317 318 319 319 320 318 313 309 306 303 301 298 295 293 290 288 288 288 288 287 287 286
257 260 262 263 261 262 263 259 264 276 281 278 273 266 263 264 265 266 270 276 276 273 271 277 283 286 286 287 288 287 285 290 293 289 284 283 281 280 279 277 277 278 279 281 281 282 283 284 286 289 292 295 299 302 304 305 305 306 307 309 311 314 316 318 318 319 320 321 321 321 318 314 310 305 302 299 296 294 291 289 288 288 288 286 285 284
256 258 258 258 260 261 262 265 270 274 273 271 270 269 269 267 263 265 274 280 282 282 278 277 281 284 285 286 287 287 288 290 291 288 286 284 282 281 281 280 281 281 282 282 282 283 285 286 288 290 293 296 300 302 304 304 305 306 308 309 311 314 317 318 319 320 322 322 322 321 320 318 315 310 306 302 299 296 293 291 289 289 289 287 284 283
263 263 258 255 259 260 260 263 267 266 267 271 270 268 270 270 269 275 282 281 281 285 283 277 277 279 278 278 279 282 285 285 284 285 285 283 281 279 279 282 284 284 284 282 281 282 284 286 288 291 294 297 300 302 303 304 305 307 307 309 312 315 316 318 320 322 323 323 323 322 321 320 318 316 312 307 303 300 297 293 291 290 289 288 285 283
278 277 266 258 259 261 261 264 268 268 269 272 271 269 270 274 278 281 281 278 278 282 283 281 283 285 284 281 279 277 276 277 279 285 287 285 282 279 280 283 284 283 283 283 282 281 283 285 288 291 294 297 300 301 303 304 305 306 307 310 313 315 316 318 321 323 324 323 323 323 323 323 321 319 317 315 311 306 301 297 294 292 291 289 286 284
281 278 271 265 265 264 265 267 270 272 273 273 275 276 275 275 277 273 271 273 276 280 283 284 285 288 287 284 280 276 275 277 280 286 289 287 281 278 280 282 282 281 281 281 281 281 283 286 288 290 294 297 300 302 302 304 305 305 308 311 314 314 316 318 321 324 325 324 324 325 326 326 325 324 323 321 319 314 309 303 299 296 293 291 289 288
281 278 272 269 270 269 268 269 274 278 278 275 276 279 279 275 271 268 270 275 278 282 287 288 286 286 283 280 278 277 278 280 282 284 286 283 278 277 279 280 280 281 281 280 280 281 283 286 288 291 295 298 300 301 303 303 304 305 308 312 313 314 316 319 322 324 325 324 325 327 329 330 330 330 328 326 324 321 318 313 308 302 297 295 294 292
279 277 273 270 271 272 271 272 276 279 280 279 279 282 281 275 271 272 278 282 284 286 288 287 286 285 283 280 279 279 279 281 282 282 282 281 277 275 275 276 278 280 280 279 278 280 282 286 288 291 294 297 299 300 302 303 304 306 308 311 312 314 317 320 322 323 325 325 327 330 332 332 334 334 333 331 330 327 325 323 318 312 305 300 298 297
280 277 277 276 275 274 272 272 274 274 276 279 281 279 277 276 277 278 281 285 287 287 285 285 286 286 284 283 283 282 282 283 283 281 281 280 277 273 272 274 276 278 278 277 277 279 282 285 288 291 294 296 298 299 300 302 304 306 308 310 312 315 317 320 322 323 325 326 329 332 333 334 336 337 336 336 334 332 331 329 326 321 314 307 302 300
279 276 276 276 275 274 272 272 274 275 277 280 280 278 279 281 282 281 281 283 285 284 284 285 286 287 286 285 284 284 284 284 284 282 280 279 275 270 268 272 274 276 277 276 276 278 282 285 287 290 293 295 297 298 299 301 303 305 308 310 312 315 317 319 321 324 326 328 331 333 334 335 337 338 339 338 338 336 335 333 332 329 324 317 310 305
281 279 278 277 279 280 278 276 277 279 280 281 280 280 281 282 282 282 282 282 282 282 284 285 285 286 287 285 284 284 284 284 285 283 278 275 270 266 267 271 273 274 275 275 275 277 281 285 288 290 293 296 296 297 298 300 302 304 307 310 312 315 317 319 322 325 327 330 332 334 335 337 338 339 341 341 342 341 339 338 338 336 333 328 320 312
286 287 284 282 283 285 283 282 281 280 280 282 283 283 283 282 282 283 284 283 282 283 285 285 285 285 286 286 284 284 283 283 284 282 277 272 267 265 266 268 270 271 272 273 274 277 280 284 287 290 293 295 295 296 297 299 301 303 306 310 313 315 317 319 322 326 328 330 333 335 337 338 339 340 342 344 345 345 344 343 343 342 340 337 331 323
289 292 289 283 282 283 283 284 283 282 282 283 283 282 282 283 283 284 284 284 284 285 286 286 286 285 286 286 285 284 283 281 280 278 276 271 266 264 265 267 269 271 272 272 274 276 279 282 285 289 293 294 295 295 295 297 300 302 304 309 313 315 317 319 322 326 329 331 334 336 338 340 340 341 344 346 347 347 347 348 348 348 347 345 341 335
287 289 288 285 286 286 285 285 285 285 285 284 282 282 282 282 284 286 286 287 287 287 287 286 285 285 285 286 285 284 283 280 277 273 271 267 264 263 265 267 270 271 271 271 272 274 276 280 283 288 292 294 294 294 294 295 298 300 303 308 312 314 316 318 321 325 329 332 334 337 340 342 342 343 345 347 348 348 349 351 352 353 354 352 350 346
286 286 286 287 288 287 285 284 285 285 285 283 284 284 284 284 285 286 288 290 290 289 288 287 286 286 285 284 284 284 283 280 274 270 267 265 263 262 264 267 269 269 269 269 270 272 275 279 283 287 291 293 294 293 292 294 297 299 302 307 311 313 314 316 320 325 329 332 333 337 341 343 345 346 347 348 349 350 352 353 355 357 358 358 357 356
282 282 282 283 284 283 284 285 285 284 283 283 284 285 285 286 287 287 289 290 290 289 288 287 287 288 287 285 283 283 283 280 274 268 265 262 260 261 263 266 266 266 266 267 268 271 274 278 283 286 288 291 293 292 291 293 295 298 301 305 309 312 312 315 319 324 328 331 333 336 341 344 346 348 349 350 351 353 354 356 357 359 2 3 4 5